Terminal Aerodrome Forecast
Issued by NWS

Home | Current Version | Previous Version | Text Only | Print | Product List | Glossary On
Versions: 1 2 3 4 5 6 7 8 9 10 11 12 13 14 15
000
FTUS46 KMTR 301509 AAA
TAFSJC
TAF AMD
KSJC 301509Z 3015/3112 24004KT P6SM FEW015 BKN025 BKN250
     FM301700 31005KT P6SM SCT025 BKN250
     FM301900 31010KT P6SM SKC
     FM310300 30005KT P6SM SKC=

USA.gov is the U.S. government's official web portal to all federal, state and local government web resources and services.